Location: La Brionne
(46.1728°N, 1.7849°E)
Time: 18:16:32
(UTC+00:00)

Cosmos 1544 Rocket - Pass Details

Date: 23 October 2021
Orbit: 603 x 632 km, 82.5° (Epoch: 27 November)

Event Time Altitude Azimuth Distance (km) Brightness Sun altitude
Rises 04:29:22 0° 358° (N) 2,914 7.1 -20.0°
Reaches altitude 10° 04:31:48 10° 8° (N) 1,998 6.3 -19.5°
Maximum altitude 04:35:49 34° 74° (ENE) 1,031 5.3 -18.9°
Drops below altitude 10° 04:39:47 10° 139° (SE) 1,967 6.6 -18.2°
Sets 04:42:09 0° 149° (SSE) 2,862 7.4 -17.8°
